Retour au catalogue

CZ-4C R/B

ActifPO
NORAD 49123·ROCKET BODY·🇨🇳 China

Lancé Sep 7, 2021 depuis Taiyuan Satellite Launch Center

Loading…

Prochains Passages (prochaines 24 heures)

TLE

FraisSource: Space-Track

Époque: Sep 14, 2026, 13:51 UTC

1 49123U 21079B   26257.57757621  .00001986  00000-0  11179-3 0  9996
2 49123  98.3597 128.9370 0106915 111.0778 250.1920 15.09881473274917

Suivez CZ-4C R/B en temps réel avec AllMySat

Download on the App Store